CZ-3A DEB, 35557

Orbit data source: Space-Track

CZ-3A DEB, 35557 is space debris in HEO originally from a launch on Fri, 02 Feb 2007 UTC launched from the Xichang Space Center, China (XSC). Debris objects in space refer to the collection of defunct objects orbiting the Earth. Examples of debris include non-operational satellites, rocket bodies, and fragments generated from explosions, collisions, or faulty payload assembly.

Loading next visibility...
Identifier
35557, 2007-003R
Orbit
HEO
Country
Flag of CNCN / PRC
Related business
Manufacturer
Unknown
Mission
Spacecraft
Bus & Motor
Unknown
Mass
Unknown
Launch date (UTC)
2007-02-02 (19 years ago)
Launch vehicle
Unknown
Launch site
Xichang Space Center, China (XSC)
Object type
Payload
Rocket body
Debris
Shape & HBR
Unknown shape, 0.3 m
Radar Cross Section
Medium (>0.1 m² and <1 m²)

Expand to show TLE details & history
Last TLE update: 1 day ago

TLE from 1 day ago
0 CZ-3A DEB
1 35557U 07003R   26035.12101296  .00028974  00000-0  34299-1 0  9991
2 35557  23.1201 169.4543 6406594 174.9474 197.7281  3.36015397 18021
Epoch: 2026-02-04T02:54Z
TLE epoch observation values (Epoch: 2026-02-04T02:54:15.519Z)
Latitude
-0.00002°
Longitude
-8.42287°
Altitude
24,299.617 km
Speed
2.195 km/s
True Right ascension
11h 17m 44s
True Declination
0° 00' 00"
Sunlit
Object was in daylight at epoch
Visualization orbit readout
Latitude
Unknown
Longitude
Unknown
Altitude
Unknown
Speed
Unknown
Apparent Right ascension
Unknown
Apparent Declination
Unknown
Sunlit
N/A
Visualization observer readout
Local Sidereal Time
11:56:39
Azimuth
Unknown
Elevation
Unknown
Doppler factor
Unknown
Orbital elements
Apogee altitude
24,520.504 km
Perigee altitude
389.347 km
Semi-major axis
18,833.062 km
Eccentricity
0.64066
Inclination
23.1201°
RAAN
169.4543°
Arg. of periapsis
174.9474°
True anomaly
185.08052°
Mean anomaly
197.7281°
Eccentric anomaly
190.83061°
Mean motion
0.83977 °/min
Orbital period
428.69 mins
BSTAR
0.034299
Loading maneuver chart data...
Computing Atmospheric mass density...
Loading historical data...
Loading historical data...
Loading historical data...
Loading historical data...
Loading historical data...
Loading historical data...
Loading historical data...

Documentation

Showing up to 5 results
|